Location: Bli��� Lhota
(48.7570°N, 14.0120°E)
Time: 14:41:46
(UTC+00:00)

Nadezhda 4 Rocket - Pass Details

Date: 18 September 2020
Orbit: 949 x 993 km, 82.9° (Epoch: 24 October)

Event Time Altitude Azimuth Distance (km) Brightness Sun altitude
Rises 18:50:17 0° 350° (N) 3,641 7.5 -16.9°
Reaches altitude 10° 18:52:47 10° 351° (N) 2,688 6.7 -17.3°
Maximum altitude 18:58:57 86° 82° (E) 959 3.9 -18.2°
Enters shadow 19:04:42 12° 171° (S) 2,532 5.8 -19.1°
